EWG403 LKPR-LZKZ

Flight info

Callsign EWG403
Flight time 0h 56m
Altitude 29000
Route VOZ DCT LIKSA DCT UPLAV DCT MAKAL DCT TAKOS
Aircraft A320/M-SDE3FGHIRWY/LB1

Departure

Time 2026-04-22 16:49
Airport Václav Havel Airport Prague (LKPR)

Arrival

Time 2026-04-22 17:45
Airport Košice International Airport (LZKZ)
Time Latitude Longitude Altitude Speed Heading
2026-04-22 16:22 50.10414 14.26636 1171 ft 0 kts 34°
2026-04-22 16:27 50.10414 14.26635 1176 ft 0 kts 34°
2026-04-22 16:41 50.10413 14.26634 1176 ft 2 kts 34°
2026-04-22 16:41 50.10399 14.26619 1173 ft 2 kts 34°
2026-04-22 16:41 50.10389 14.26609 1171 ft 3 kts 48°
2026-04-22 16:42 50.10379 14.26579 1173 ft 0 kts 93°
2026-04-22 16:44 50.10375 14.26593 1171 ft 5 kts 114°
2026-04-22 16:45 50.10351 14.26650 1173 ft 7 kts 130°
2026-04-22 16:45 50.10320 14.26629 1175 ft 4 kts 216°
2026-04-22 16:45 50.10283 14.26584 1173 ft 10 kts 218°
2026-04-22 16:45 50.10217 14.26572 1174 ft 12 kts 147°
2026-04-22 16:46 50.10149 14.26704 1173 ft 18 kts 127°
2026-04-22 16:46 50.10069 14.26872 1174 ft 21 kts 127°
2026-04-22 16:46 50.09979 14.27057 1175 ft 23 kts 127°
2026-04-22 16:46 50.09878 14.27266 1172 ft 25 kts 128°
2026-04-22 16:47 50.09749 14.27473 1174 ft 28 kts 135°
2026-04-22 16:47 50.09607 14.27694 1174 ft 30 kts 135°
2026-04-22 16:47 50.09503 14.27852 1175 ft 32 kts 135°
2026-04-22 16:47 50.09297 14.28168 1173 ft 29 kts 135°
2026-04-22 16:48 50.09181 14.28285 1174 ft 20 kts 184°
2026-04-22 16:48 50.09090 14.28126 1173 ft 17 kts 255°
2026-04-22 16:48 50.09128 14.27993 1176 ft 18 kts 307°
2026-04-22 16:48 50.09354 14.27526 1176 ft 88 kts 306°
2026-04-22 16:49 50.09839 14.26524 1174 ft 141 kts 307°
2026-04-22 16:49 50.10483 14.25206 1604 ft 151 kts 311°
2026-04-22 16:49 50.11008 14.23773 2337 ft 161 kts 281°
2026-04-22 16:49 50.10693 14.22110 2951 ft 172 kts 226°
2026-04-22 16:50 50.09570 14.21366 3332 ft 189 kts 175°
2026-04-22 16:50 50.08193 14.21638 3661 ft 211 kts 168°
2026-04-22 16:50 50.06668 14.22073 3986 ft 236 kts 167°
2026-04-22 16:50 50.04966 14.22569 4471 ft 261 kts 167°
2026-04-22 16:51 50.03128 14.23084 5225 ft 273 kts 168°
2026-04-22 16:51 50.01237 14.23585 6218 ft 277 kts 168°
2026-04-22 16:51 49.99348 14.24063 7174 ft 281 kts 169°
2026-04-22 16:51 49.97404 14.24549 8095 ft 285 kts 169°
2026-04-22 16:52 49.95436 14.25035 9031 ft 289 kts 169°
2026-04-22 16:52 49.93411 14.25528 9934 ft 293 kts 170°
2026-04-22 16:52 49.91399 14.26015 10624 ft 304 kts 169°
2026-04-22 16:52 49.89208 14.26702 10918 ft 326 kts 161°
2026-04-22 16:53 49.87109 14.28099 11498 ft 334 kts 148°
2026-04-22 16:53 49.85241 14.30161 12253 ft 335 kts 136°
2026-04-22 16:53 49.83665 14.32822 13041 ft 336 kts 124°
2026-04-22 16:53 49.82253 14.35722 13845 ft 339 kts 124°
2026-04-22 16:54 49.80822 14.38649 14571 ft 342 kts 124°
2026-04-22 16:54 49.79378 14.41595 15285 ft 345 kts 124°
2026-04-22 16:54 49.77918 14.44565 15984 ft 348 kts 124°
2026-04-22 16:54 49.76445 14.47551 16677 ft 351 kts 124°
2026-04-22 16:55 49.74960 14.50559 17367 ft 354 kts 124°
2026-04-22 16:55 49.73456 14.53603 18074 ft 357 kts 124°
2026-04-22 16:55 49.71945 14.56664 18749 ft 360 kts 124°
2026-04-22 16:55 49.70423 14.59747 19364 ft 363 kts 124°
2026-04-22 16:56 49.68832 14.62796 20003 ft 368 kts 130°
2026-04-22 16:56 49.67043 14.65645 20654 ft 371 kts 131°
2026-04-22 16:56 49.65236 14.68509 21273 ft 374 kts 131°
2026-04-22 16:56 49.63414 14.71397 21876 ft 377 kts 131°
2026-04-22 16:57 49.61575 14.74309 22471 ft 381 kts 131°
2026-04-22 16:57 49.59716 14.77250 23057 ft 384 kts 131°
2026-04-22 16:57 49.57840 14.80208 23632 ft 388 kts 131°
2026-04-22 16:57 49.55940 14.83195 24119 ft 392 kts 132°
2026-04-22 16:58 49.54651 14.85241 24419 ft 394 kts 130°
2026-04-22 16:58 49.52504 14.89755 24997 ft 396 kts 117°
2026-04-22 16:58 49.51246 14.93542 25408 ft 399 kts 114°
2026-04-22 16:58 49.50000 14.97381 25842 ft 403 kts 115°
2026-04-22 16:59 49.48735 15.01253 26264 ft 407 kts 115°
2026-04-22 16:59 49.47458 15.05153 26688 ft 410 kts 115°
2026-04-22 16:59 49.46168 15.09087 27086 ft 414 kts 115°
2026-04-22 16:59 49.44863 15.13064 27473 ft 418 kts 115°
2026-04-22 17:00 49.43546 15.17064 27862 ft 422 kts 115°
2026-04-22 17:00 49.40867 15.25163 28634 ft 429 kts 115°
2026-04-22 17:00 49.39508 15.29263 29003 ft 432 kts 115°
2026-04-22 17:01 49.38141 15.33391 29218 ft 434 kts 115°
2026-04-22 17:01 49.36798 15.37441 29250 ft 421 kts 115°
2026-04-22 17:01 49.34166 15.45366 29243 ft 416 kts 115°
2026-04-22 17:02 49.31980 15.51932 29239 ft 415 kts 116°
2026-04-22 17:02 49.28912 15.61103 29237 ft 417 kts 116°
2026-04-22 17:03 49.26258 15.69017 28818 ft 418 kts 116°
2026-04-22 17:03 49.25359 15.71683 29236 ft 418 kts 116°
2026-04-22 17:03 49.24022 15.75643 29227 ft 418 kts 116°
2026-04-22 17:04 49.21366 15.83507 29227 ft 419 kts 116°
2026-04-22 17:04 49.18693 15.91416 29223 ft 419 kts 116°
2026-04-22 17:05 49.16477 15.99607 29221 ft 417 kts 102°
2026-04-22 17:05 49.16053 16.03979 29216 ft 415 kts 91°
2026-04-22 17:05 49.16133 16.08367 29219 ft 413 kts 81°
2026-04-22 17:06 49.17140 16.16983 29228 ft 412 kts 78°
2026-04-22 17:06 49.18147 16.25593 29234 ft 411 kts 78°
2026-04-22 17:07 49.19146 16.34265 29254 ft 419 kts 78°
2026-04-22 17:07 49.20146 16.42927 29200 ft 408 kts 78°
2026-04-22 17:08 49.21131 16.51446 29193 ft 406 kts 78°
2026-04-22 17:08 49.22099 16.59927 29192 ft 404 kts 78°
2026-04-22 17:09 49.23058 16.68386 29195 ft 403 kts 78°
2026-04-22 17:09 49.24017 16.76819 29200 ft 402 kts 78°
2026-04-22 17:10 49.24959 16.85240 29200 ft 401 kts 79°
2026-04-22 17:10 49.25890 16.93661 29220 ft 400 kts 79°
2026-04-22 17:11 49.26818 17.02059 29216 ft 400 kts 79°
2026-04-22 17:11 49.27739 17.10436 29211 ft 398 kts 79°
2026-04-22 17:12 49.28652 17.18799 29211 ft 398 kts 79°
2026-04-22 17:12 49.29548 17.27142 29214 ft 397 kts 79°
2026-04-22 17:13 49.30214 17.35516 29208 ft 397 kts 92°
2026-04-22 17:13 49.29660 17.39645 29208 ft 399 kts 107°
2026-04-22 17:13 49.28744 17.43617 29203 ft 399 kts 108°
2026-04-22 17:14 49.26862 17.51617 29206 ft 399 kts 108°
2026-04-22 17:14 49.24974 17.59613 29202 ft 399 kts 108°
2026-04-22 17:15 49.23088 17.67606 29205 ft 399 kts 108°
2026-04-22 17:15 49.21207 17.75599 29207 ft 399 kts 108°
2026-04-22 17:16 49.19313 17.83568 29203 ft 399 kts 108°
2026-04-22 17:16 49.17416 17.91522 29206 ft 398 kts 108°
2026-04-22 17:17 49.15517 17.99473 29207 ft 398 kts 108°
2026-04-22 17:17 49.13613 18.07393 29201 ft 397 kts 108°
2026-04-22 17:18 49.11709 18.15303 29200 ft 397 kts 108°
2026-04-22 17:18 49.09801 18.23209 29199 ft 397 kts 108°
2026-04-22 17:19 49.05970 18.38973 29189 ft 396 kts 108°
2026-04-22 17:20 49.02125 18.54698 29183 ft 396 kts 108°
2026-04-22 17:21 48.99249 18.66412 29177 ft 395 kts 108°
2026-04-22 17:22 48.96337 18.78151 29170 ft 395 kts 109°
2026-04-22 17:23 48.93421 18.89859 29173 ft 394 kts 108°
2026-04-22 17:23 48.90511 19.01538 29171 ft 394 kts 108°
2026-04-22 17:24 48.88557 19.09314 29162 ft 394 kts 109°
2026-04-22 17:24 48.86602 19.17058 28903 ft 387 kts 108°
2026-04-22 17:25 48.85640 19.20848 28620 ft 384 kts 109°
2026-04-22 17:25 48.84684 19.24608 28328 ft 379 kts 109°
2026-04-22 17:25 48.83739 19.28322 27934 ft 376 kts 108°
2026-04-22 17:25 48.82803 19.32008 27525 ft 373 kts 108°
2026-04-22 17:26 48.81874 19.35670 27116 ft 371 kts 108°
2026-04-22 17:26 48.80960 19.39266 26727 ft 369 kts 108°
2026-04-22 17:26 48.80037 19.42886 26325 ft 367 kts 108°
2026-04-22 17:26 48.79122 19.46477 25932 ft 365 kts 108°
2026-04-22 17:27 48.78207 19.50060 25544 ft 363 kts 108°
2026-04-22 17:27 48.77296 19.53616 25142 ft 361 kts 108°
2026-04-22 17:27 48.76388 19.57157 24736 ft 359 kts 108°
2026-04-22 17:27 48.75482 19.60681 24337 ft 358 kts 109°
2026-04-22 17:28 48.74577 19.64178 23921 ft 357 kts 109°
2026-04-22 17:28 48.73670 19.67672 23460 ft 355 kts 109°
2026-04-22 17:28 48.72770 19.71140 23022 ft 352 kts 109°
2026-04-22 17:28 48.71877 19.74581 22595 ft 349 kts 109°
2026-04-22 17:29 48.70995 19.77986 22181 ft 346 kts 109°
2026-04-22 17:29 48.70120 19.81373 21742 ft 344 kts 109°
2026-04-22 17:29 48.69251 19.84732 21319 ft 341 kts 109°
2026-04-22 17:29 48.68385 19.88063 20888 ft 339 kts 109°
2026-04-22 17:30 48.67521 19.91381 20447 ft 337 kts 109°
2026-04-22 17:30 48.66665 19.94662 20029 ft 335 kts 109°
2026-04-22 17:30 48.65811 19.97934 19604 ft 333 kts 109°
2026-04-22 17:30 48.64961 20.01181 19188 ft 332 kts 109°
2026-04-22 17:31 48.64108 20.04439 18757 ft 332 kts 109°
2026-04-22 17:31 48.63251 20.07704 18214 ft 335 kts 109°
2026-04-22 17:31 48.62392 20.10967 17766 ft 333 kts 109°
2026-04-22 17:31 48.61539 20.14205 17344 ft 330 kts 109°
2026-04-22 17:32 48.60689 20.17418 16917 ft 328 kts 109°
2026-04-22 17:32 48.59841 20.20615 16489 ft 326 kts 109°
2026-04-22 17:32 48.59010 20.23745 16073 ft 325 kts 109°
2026-04-22 17:32 48.58248 20.26986 15642 ft 321 kts 101°
2026-04-22 17:33 48.57978 20.29169 15371 ft 319 kts 96°
2026-04-22 17:33 48.57553 20.33541 14820 ft 318 kts 96°
2026-04-22 17:33 48.57228 20.36841 14406 ft 317 kts 96°
2026-04-22 17:33 48.56899 20.40131 13984 ft 316 kts 96°
2026-04-22 17:34 48.56569 20.43408 13541 ft 315 kts 96°
2026-04-22 17:34 48.56239 20.46663 13127 ft 313 kts 96°
2026-04-22 17:34 48.55908 20.49907 12719 ft 311 kts 96°
2026-04-22 17:34 48.55578 20.53117 12316 ft 309 kts 96°
2026-04-22 17:35 48.55250 20.56311 11916 ft 307 kts 96°
2026-04-22 17:35 48.54923 20.59489 11520 ft 306 kts 96°
2026-04-22 17:35 48.54594 20.62661 11110 ft 305 kts 96°
2026-04-22 17:35 48.54265 20.65821 10706 ft 304 kts 96°
2026-04-22 17:36 48.53939 20.68977 10306 ft 304 kts 97°
2026-04-22 17:36 48.53612 20.72116 10037 ft 299 kts 97°
2026-04-22 17:36 48.53291 20.75176 9791 ft 292 kts 96°
2026-04-22 17:36 48.52976 20.78222 9363 ft 292 kts 96°
2026-04-22 17:37 48.52663 20.81223 9064 ft 289 kts 96°
2026-04-22 17:37 48.52352 20.84211 8692 ft 287 kts 96°
2026-04-22 17:37 48.52048 20.87131 8299 ft 283 kts 96°
2026-04-22 17:37 48.51744 20.90044 7643 ft 280 kts 96°
2026-04-22 17:38 48.51438 20.92934 7033 ft 277 kts 96°
2026-04-22 17:38 48.51135 20.95777 6426 ft 273 kts 96°
2026-04-22 17:38 48.50834 20.98594 5796 ft 270 kts 96°
2026-04-22 17:38 48.50534 21.01397 5087 ft 270 kts 96°
2026-04-22 17:39 48.50226 21.04126 4785 ft 257 kts 97°
2026-04-22 17:39 48.49861 21.06663 4626 ft 239 kts 99°
2026-04-22 17:39 48.49128 21.11277 4073 ft 215 kts 98°
2026-04-22 17:40 48.48800 21.13434 3787 ft 208 kts 94°
2026-04-22 17:40 48.48879 21.15505 3567 ft 190 kts 68°
2026-04-22 17:40 48.49472 21.17206 3507 ft 180 kts 46°
2026-04-22 17:40 48.50415 21.18397 3508 ft 174 kts 26°
2026-04-22 17:41 48.51467 21.18951 3476 ft 150 kts 13°
2026-04-22 17:41 48.52436 21.19286 3316 ft 136 kts 12°
2026-04-22 17:41 48.53339 21.19598 3185 ft 131 kts 12°
2026-04-22 17:41 48.54210 21.19901 2999 ft 128 kts 12°
2026-04-22 17:42 48.54504 21.20003 2941 ft 128 kts 12°
2026-04-22 17:42 48.55945 21.20504 2649 ft 128 kts 12°
2026-04-22 17:42 48.56530 21.20711 2539 ft 127 kts 13°
2026-04-22 17:42 48.57671 21.21124 2302 ft 127 kts 12°
2026-04-22 17:43 48.58528 21.21420 2110 ft 126 kts 12°
2026-04-22 17:43 48.59381 21.21727 1945 ft 126 kts 12°
2026-04-22 17:43 48.60236 21.22017 1792 ft 126 kts 11°
2026-04-22 17:43 48.61093 21.22323 1577 ft 126 kts 13°
2026-04-22 17:44 48.61954 21.22595 1386 ft 127 kts 14°
2026-04-22 17:44 48.62811 21.22907 1210 ft 128 kts 13°
2026-04-22 17:44 48.63673 21.23200 1053 ft 128 kts 12°
2026-04-22 17:44 48.64242 21.23398 936 ft 127 kts 13°
2026-04-22 17:45 48.65385 21.23800 762 ft 119 kts 12°
2026-04-22 17:45 48.66057 21.24032 757 ft 75 kts 13°
2026-04-22 17:45 48.66435 21.24162 755 ft 49 kts 13°
2026-04-22 17:45 48.66737 21.24267 760 ft 40 kts 12°
2026-04-22 17:46 48.67006 21.24364 760 ft 39 kts 13°
2026-04-22 17:46 48.67193 21.24417 755 ft 21 kts 351°
2026-04-22 17:46 48.67250 21.24270 754 ft 18 kts 285°
2026-04-22 17:46 48.67205 21.24161 757 ft 16 kts 195°
2026-04-22 17:47 48.67169 21.24120 753 ft 1 kts 263°
2026-04-22 17:47 48.67173 21.24083 756 ft 4 kts 295°
2026-04-22 17:47 48.67204 21.24081 757 ft 5 kts 14°
2026-04-22 17:47 48.67224 21.24089 757 ft 0 kts 14°